Weather History for Salem, OR

Change the Weather History Date:

Wednesday, February 13, 2013

  Actual Average Record
Temperature  
Mean Temperature 50 °F 43 °F  
Max Temperature 53 °F 51 °F 64 °F (1931)
Min Temperature 46 °F 34 °F 20 °F (1905)
Degree Days  
Heating Degree Days 15 22  
Month to date heating degree days 274 293  
Since 1 July heating degree days 2741 2920  
Cooling Degree Days 0 0  
Month to date cooling degree days 0 0  
Year to date cooling degree days 0 0  
Moisture  
Dew Point 43 °F    
Average Humidity 79    
Maximum Humidity 93    
Minimum Humidity 64    
Precipitation  
Precipitation 0.00 in 0.17 in 1.35 in (1982)
Month to date precipitation 0.42 2.21  
Year to date precipitation 2.05 8.17  
Snow  
Snow 0.00 in - - ()
Month to date snowfall 0.0  
Snow Depth 0.00 in    
Sea Level Pressure  
Sea Level Pressure 30.47 in    
Wind  
Wind Speed 6 mph (SSW)    
Max Wind Speed 13 mph    
Max Gust Speed 16 mph    
Visibility 10 miles    
Events      
T = Trace of Precipitation, MM = Missing Value Source: NWS Daily Summary

Daily Weather History Graph

Daily Weather History Graph

Search for Another Location

Airport:

Trip Planner

Search our weather history database for the weather conditions in past years. The results will help you decide how hot, cold, wet, or windy it might be!

Date:

Astronomy

Feb. 13, 2013 Rise Set
Actual Time 7:15 AM PST 5:37 PM PST
Civil Twilight 6:44 AM PST 6:08 PM PST
Nautical Twilight 6:10 AM PST 6:42 PM PST
Astronomical Twilight 5:36 AM PST 7:16 PM PST
Moon 8:35 AM PST (2/13) 10:00 PM PST (2/13)
Length of Visible Light 11h 23m
Length of Day
10h 22m
Waxing Crescent, 14% of the Moon is Illuminated
Feb 13
Waxing Crescent
Feb 17
First Quarter
Feb 25
Full
Mar 4
Last Quarter
Mar 11
New

Hourly Weather History & Observations

Time (PST) Temp. Dew Point Humidity Pressure Visibility Wind Dir Wind Speed Gust Speed Precip Events Conditions
12:56 AM 48.0 °F 43.0 °F 83% 30.46 in 10.0 mi SSW 6.9 mph - N/A   Overcast
1:56 AM 48.0 °F 43.0 °F 83% 30.45 in 10.0 mi South 10.4 mph - N/A   Overcast
2:56 AM 48.0 °F 43.0 °F 83% 30.45 in 10.0 mi South 6.9 mph - N/A   Overcast
3:56 AM 48.0 °F 44.1 °F 86% 30.45 in 10.0 mi SSE 5.8 mph - N/A   Overcast
4:56 AM 48.0 °F 44.1 °F 86% 30.45 in 10.0 mi SSE 6.9 mph - N/A   Overcast
5:56 AM 48.0 °F 44.1 °F 86% 30.45 in 10.0 mi South 8.1 mph - N/A   Overcast
6:56 AM 48.0 °F 44.1 °F 86% 30.44 in 10.0 mi South 11.5 mph - N/A   Overcast
7:56 AM 46.9 °F 44.1 °F 90% 30.45 in 10.0 mi South 8.1 mph - N/A   Scattered Clouds
8:56 AM 48.9 °F 45.0 °F 86% 30.47 in 10.0 mi South 9.2 mph - N/A   Mostly Cloudy
9:56 AM 50.0 °F 45.0 °F 83% 30.48 in 10.0 mi South 5.8 mph - N/A   Overcast
10:35 AM 50.0 °F 44.6 °F 82% 30.49 in 10.0 mi South 5.8 mph - N/A   Overcast
10:56 AM 51.1 °F 45.0 °F 80% 30.49 in 10.0 mi SSW 6.9 mph - N/A   Overcast
11:56 AM 52.0 °F 45.0 °F 77% 30.48 in 10.0 mi SSW 8.1 mph - N/A   Overcast
12:56 PM 52.0 °F 46.0 °F 80% 30.46 in 10.0 mi South 9.2 mph - N/A   Overcast
1:56 PM 53.1 °F 45.0 °F 74% 30.45 in 10.0 mi SSW 11.5 mph - N/A   Overcast
2:56 PM 53.1 °F 44.1 °F 71% 30.44 in 10.0 mi SSW 6.9 mph - N/A   Overcast
3:56 PM 53.1 °F 41.0 °F 64% 30.45 in 10.0 mi Variable 5.8 mph - N/A   Overcast
4:56 PM 51.1 °F 41.0 °F 68% 30.45 in 10.0 mi NW 4.6 mph - N/A   Overcast
5:56 PM 50.0 °F 39.9 °F 68% 30.46 in 10.0 mi NW 8.1 mph - N/A   Overcast
6:56 PM 50.0 °F 39.9 °F 68% 30.47 in 10.0 mi NW 8.1 mph - N/A   Overcast
7:56 PM 48.9 °F 39.9 °F 71% 30.48 in 10.0 mi WNW 4.6 mph - N/A   Overcast
8:56 PM 48.0 °F 39.9 °F 74% 30.49 in 10.0 mi Calm Calm - N/A   Overcast
9:56 PM 46.9 °F 41.0 °F 80% 30.51 in 10.0 mi Calm Calm - N/A   Overcast
10:56 PM 46.9 °F 41.0 °F 80% 30.51 in 10.0 mi Calm Calm - N/A   Overcast
11:56 PM 46.0 °F 41.0 °F 83% 30.52 in 10.0 mi Calm Calm - N/A   Overcast